Flag for Guinea Weather past 2 weeks in Conakry, Guinea

Now
82 °F

Partly cloudy.


Feels Like: 89 °F
Forecast: N/A
Wind: 7 mph from West

Location: Conakry / Gbessia

Current Time: Jun 3, 2015 at 9:47:12 PM

Latest Report: Jun 3, 2015 at 9:00 PM


Visibility: N/A

Pressure: 29.95 "Hg

Humidity: 79%

Dew point: 75 °F

Location of ConakryLocation

Historic Weather in Conakry — Graph

°F

Conakry temperature yesterday

Maximum temperature yesterday: 86 °F (at 3:00 PM)
Minimum temperature yesterday: 72 °F (at 4:00 AM)
Average temperature yesterday: 80 °F

Past Weeks' High & Low Weather Summary

 TemperatureHumidityPressure
High91 °F (May 20, 2:00 PM)100% (May 21, 4:00 AM)30.04 "Hg (May 21, 4:00 AM)
Low72 °F (Jun 2, 4:00 AM)49% (May 20, 2:00 PM)29.80 "Hg (May 26, 5:00 PM)
Average83 °F79%29.89 "Hg
* Reported May 19 8:00 PM — Jun 3 8:00 PM, Conakry, Weather by CustomWeather, © 2015

Note: Actual official high and low records may vary slightly from our data, if they occured in-between our weather recording intervals... More about our weather records

Advertising

Conakry weather history for previous 24 hours

 ConditionsComfort  
Time TempWeatherWind HumidityBarometerVisibility
8:00 PM
Wed, Jun 3
82 °FPartly cloudy.7 mph79%29.92 "HgN/A
7:00 PM84 °FBroken clouds.12 mph74%29.92 "HgN/A
6:00 PM84 °FBroken clouds.12 mph74%29.89 "HgN/A
5:00 PM84 °FBroken clouds.9 mph74%29.89 "HgN/A
4:00 PM86 °FBroken clouds.9 mph70%29.89 "HgN/A
3:00 PM86 °FBroken clouds.9 mph70%29.92 "HgN/A
2:00 PM86 °FBroken clouds.9 mph66%29.92 "HgN/A
1:00 PM86 °FBroken clouds.7 mph70%29.95 "HgN/A
12:00 PM84 °FBroken clouds.9 mph74%29.98 "HgN/A
11:00 AM82 °FBroken clouds.9 mph79%29.98 "HgN/A
10:00 AM84 °FBroken clouds.9 mph74%29.98 "HgN/A
9:00 AM81 °FPartly sunny.9 mph89%29.98 "HgN/A
8:00 AM79 °FPartly sunny.No wind84%29.95 "HgN/A
6:00 AM79 °FPassing clouds.No wind89%29.92 "HgN/A
5:00 AM79 °FPassing clouds.No wind89%29.92 "HgN/A
4:00 AM79 °FPassing clouds.No wind84%29.92 "HgN/A
3:00 AM79 °FPassing clouds.7 mph84%29.89 "HgN/A
2:00 AM79 °FPassing clouds.7 mph94%29.89 "HgN/A
1:00 AM79 °FPassing clouds.7 mph89%29.92 "HgN/A
12:00 AM79 °FPassing clouds.7 mph89%29.92 "HgN/A
11:00 PM
Tue, Jun 2
81 °FPassing clouds.9 mph84%29.92 "HgN/A
10:00 PM81 °FPartly cloudy.9 mph84%29.92 "HgN/A
9:00 PM82 °FPartly cloudy.No wind74%29.92 "HgN/A
Weather by CustomWeather, © 2015

See weather overviewHow to use our weather pages